RYR356 EDDH-EDDM

Flight info

Callsign RYR356
Flight time 0h 59m
Altitude 35000
Route AMLUH2G AMLUH M852 DENIX DCT ZUCKA DCT SODRO/N0445F310 T703 LULAR/N0439F300 T105 LANDU LANDU2A
Aircraft B738/M-SDE2E3FGHIRWXY/LB1

Departure

Time 2026-04-30 19:31
Airport Hamburg Helmut Schmidt Airport (EDDH)

Arrival

Time 2026-04-30 20:30
Airport Munich Airport (EDDM)
Time Latitude Longitude Altitude Speed Heading
2026-04-30 18:21 53.63170 10.00350 62 ft 0 kts 86°
2026-04-30 19:17 53.63168 10.00314 62 ft 4 kts 85°
2026-04-30 19:18 53.63165 10.00258 62 ft 3 kts 85°
2026-04-30 19:18 53.63164 10.00207 62 ft 1 kts 112°
2026-04-30 19:18 53.63171 10.00192 62 ft 1 kts 147°
2026-04-30 19:19 53.63182 10.00184 62 ft 1 kts 171°
2026-04-30 19:19 53.63187 10.00183 62 ft 0 kts 175°
2026-04-30 19:20 53.63129 10.00190 62 ft 14 kts 176°
2026-04-30 19:21 53.63037 10.00152 62 ft 14 kts 209°
2026-04-30 19:21 53.62930 10.00011 62 ft 6 kts 238°
2026-04-30 19:22 53.62920 9.99981 62 ft 0 kts 240°
2026-04-30 19:23 53.62899 9.99918 62 ft 0 kts 242°
2026-04-30 19:24 53.62897 9.99913 62 ft 0 kts 242°
2026-04-30 19:26 53.62897 9.99912 62 ft 0 kts 242°
2026-04-30 19:27 53.62906 9.99710 62 ft 10 kts 333°
2026-04-30 19:27 53.62910 9.99706 62 ft 0 kts 333°
2026-04-30 19:30 53.62911 9.99706 62 ft 2 kts 333°
2026-04-30 19:31 53.63887 9.98863 63 ft 158 kts 333°
2026-04-30 19:31 53.65001 9.97913 440 ft 191 kts 334°
2026-04-30 19:31 53.67443 9.95879 1645 ft 226 kts 332°
2026-04-30 19:32 53.68949 9.94765 2162 ft 245 kts 347°
2026-04-30 19:32 53.70648 9.94600 2852 ft 253 kts
2026-04-30 19:32 53.72386 9.94728 3579 ft 259 kts
2026-04-30 19:32 53.74019 9.95896 4286 ft 264 kts 41°
2026-04-30 19:33 53.74932 9.98356 5454 ft 248 kts 74°
2026-04-30 19:33 53.75179 10.01094 6398 ft 243 kts 86°
2026-04-30 19:33 53.74995 10.03851 7154 ft 244 kts 110°
2026-04-30 19:33 53.74150 10.06369 7689 ft 256 kts 124°
2026-04-30 19:34 53.73129 10.08896 8294 ft 264 kts 123°
2026-04-30 19:34 53.72120 10.11467 8940 ft 269 kts 123°
2026-04-30 19:34 53.70046 10.16730 10220 ft 283 kts 123°
2026-04-30 19:35 53.68873 10.19233 10918 ft 292 kts 136°
2026-04-30 19:35 53.67169 10.21139 11132 ft 318 kts 159°
2026-04-30 19:35 53.64967 10.22187 11662 ft 333 kts 166°
2026-04-30 19:35 53.63461 10.22842 11725 ft 351 kts 165°
2026-04-30 19:36 53.60203 10.24340 12025 ft 378 kts 164°
2026-04-30 19:36 53.57678 10.25500 12150 ft 398 kts 165°
2026-04-30 19:36 53.52279 10.27972 13147 ft 412 kts 165°
2026-04-30 19:37 53.49545 10.29221 13860 ft 413 kts 165°
2026-04-30 19:37 53.46769 10.30488 14333 ft 419 kts 165°
2026-04-30 19:37 53.43950 10.31773 15019 ft 419 kts 165°
2026-04-30 19:37 53.41106 10.33063 15504 ft 425 kts 165°
2026-04-30 19:38 53.38250 10.34348 16085 ft 427 kts 165°
2026-04-30 19:38 53.35403 10.35627 16596 ft 430 kts 165°
2026-04-30 19:38 53.32511 10.36926 17092 ft 433 kts 165°
2026-04-30 19:38 53.29599 10.38231 17613 ft 436 kts 165°
2026-04-30 19:39 53.26667 10.39545 18085 ft 439 kts 165°
2026-04-30 19:39 53.23718 10.40863 18560 ft 442 kts 165°
2026-04-30 19:39 53.20744 10.42191 19013 ft 445 kts 165°
2026-04-30 19:39 53.17774 10.43515 19458 ft 447 kts 165°
2026-04-30 19:40 53.14730 10.44871 19897 ft 450 kts 165°
2026-04-30 19:40 53.11682 10.46183 20316 ft 453 kts 167°
2026-04-30 19:40 53.08602 10.47198 20732 ft 455 kts 169°
2026-04-30 19:40 53.05487 10.48112 21130 ft 458 kts 169°
2026-04-30 19:41 53.02368 10.49048 21510 ft 460 kts 169°
2026-04-30 19:41 52.99214 10.50009 21897 ft 462 kts 169°
2026-04-30 19:41 52.96048 10.50977 22254 ft 465 kts 169°
2026-04-30 19:41 52.92868 10.51951 22620 ft 467 kts 169°
2026-04-30 19:42 52.89729 10.52914 22954 ft 469 kts 169°
2026-04-30 19:42 52.86576 10.53882 23291 ft 471 kts 169°
2026-04-30 19:42 52.83505 10.54825 23606 ft 473 kts 169°
2026-04-30 19:42 52.80367 10.55788 23910 ft 475 kts 169°
2026-04-30 19:43 52.77071 10.56799 24236 ft 477 kts 169°
2026-04-30 19:43 52.73845 10.57788 24524 ft 479 kts 169°
2026-04-30 19:43 52.70550 10.58797 24829 ft 481 kts 169°
2026-04-30 19:44 52.63985 10.60804 25388 ft 485 kts 169°
2026-04-30 19:44 52.60684 10.61811 25655 ft 487 kts 169°
2026-04-30 19:44 52.57309 10.62839 25923 ft 488 kts 169°
2026-04-30 19:44 52.54005 10.63844 26217 ft 489 kts 169°
2026-04-30 19:45 52.50653 10.64862 26531 ft 490 kts 169°
2026-04-30 19:45 52.47315 10.65874 26857 ft 489 kts 170°
2026-04-30 19:45 52.43967 10.66888 27194 ft 489 kts 170°
2026-04-30 19:45 52.40659 10.67888 27532 ft 489 kts 170°
2026-04-30 19:46 52.37325 10.68895 27880 ft 488 kts 170°
2026-04-30 19:46 52.33982 10.69903 28232 ft 487 kts 170°
2026-04-30 19:46 52.30673 10.70899 28585 ft 486 kts 170°
2026-04-30 19:46 52.27396 10.71884 28957 ft 485 kts 170°
2026-04-30 19:47 52.24055 10.72886 29322 ft 485 kts 170°
2026-04-30 19:47 52.21884 10.73537 29564 ft 484 kts 170°
2026-04-30 19:47 52.17482 10.74854 30050 ft 483 kts 170°
2026-04-30 19:47 52.14171 10.75843 30411 ft 482 kts 170°
2026-04-30 19:48 52.10900 10.76819 30768 ft 481 kts 170°
2026-04-30 19:48 52.07617 10.77797 31121 ft 480 kts 170°
2026-04-30 19:48 52.04332 10.78774 31471 ft 479 kts 170°
2026-04-30 19:48 52.01069 10.79742 31815 ft 478 kts 170°
2026-04-30 19:49 51.97844 10.80699 32151 ft 477 kts 170°
2026-04-30 19:49 51.91328 10.82626 32819 ft 475 kts 170°
2026-04-30 19:49 51.88108 10.83577 33143 ft 474 kts 170°
2026-04-30 19:50 51.84891 10.84525 33461 ft 473 kts 170°
2026-04-30 19:50 51.81664 10.85475 33777 ft 473 kts 170°
2026-04-30 19:50 51.78441 10.86422 34088 ft 472 kts 170°
2026-04-30 19:50 51.75224 10.87366 34393 ft 471 kts 170°
2026-04-30 19:51 51.71995 10.88339 34696 ft 470 kts 168°
2026-04-30 19:51 51.68824 10.89567 34939 ft 469 kts 164°
2026-04-30 19:51 51.62822 10.93406 34967 ft 466 kts 154°
2026-04-30 19:52 51.57031 10.97933 34966 ft 462 kts 154°
2026-04-30 19:52 51.51270 11.02424 34966 ft 462 kts 154°
2026-04-30 19:53 51.45493 11.06937 34966 ft 463 kts 154°
2026-04-30 19:53 51.39727 11.11440 34966 ft 463 kts 154°
2026-04-30 19:54 51.33991 11.15912 34966 ft 462 kts 154°
2026-04-30 19:54 51.28199 11.20418 34966 ft 462 kts 154°
2026-04-30 19:55 51.22493 11.24846 34966 ft 462 kts 154°
2026-04-30 19:55 51.16732 11.29306 34966 ft 462 kts 154°
2026-04-30 19:56 51.11080 11.33670 34182 ft 459 kts 154°
2026-04-30 19:56 51.08216 11.35877 33430 ft 456 kts 154°
2026-04-30 19:56 51.05395 11.38048 32642 ft 456 kts 154°
2026-04-30 19:57 51.02571 11.40218 32009 ft 453 kts 154°
2026-04-30 19:57 50.99788 11.42354 31966 ft 454 kts 154°
2026-04-30 19:57 50.94029 11.46764 31965 ft 467 kts 154°
2026-04-30 19:58 50.88222 11.51198 31963 ft 472 kts 154°
2026-04-30 19:58 50.82296 11.55712 31965 ft 471 kts 154°
2026-04-30 19:59 50.77417 11.59418 31965 ft 470 kts 154°
2026-04-30 20:00 50.67664 11.66801 31965 ft 471 kts 154°
2026-04-30 20:00 50.61886 11.71158 31965 ft 471 kts 154°
2026-04-30 20:01 50.53022 11.77820 31966 ft 471 kts 154°
2026-04-30 20:01 50.47148 11.82219 31965 ft 471 kts 154°
2026-04-30 20:02 50.38165 11.88405 31966 ft 471 kts 157°
2026-04-30 20:03 50.29272 11.94382 31966 ft 471 kts 157°
2026-04-30 20:03 50.23427 11.98309 31869 ft 466 kts 156°
2026-04-30 20:04 50.20460 12.00302 30899 ft 467 kts 156°
2026-04-30 20:04 50.17628 12.02200 30175 ft 463 kts 158°
2026-04-30 20:04 50.14582 12.03713 29174 ft 464 kts 168°
2026-04-30 20:05 50.08212 12.05064 27216 ft 464 kts 172°
2026-04-30 20:05 50.05052 12.05738 26957 ft 463 kts 172°
2026-04-30 20:05 49.98637 12.07009 26964 ft 477 kts 174°
2026-04-30 20:06 49.95392 12.07457 26964 ft 483 kts 175°
2026-04-30 20:06 49.92141 12.07912 26963 ft 485 kts 174°
2026-04-30 20:06 49.88800 12.08398 26963 ft 485 kts 174°
2026-04-30 20:06 49.85688 12.08855 26965 ft 484 kts 174°
2026-04-30 20:07 49.82319 12.09354 26414 ft 477 kts 174°
2026-04-30 20:07 49.79049 12.09839 25221 ft 477 kts 174°
2026-04-30 20:07 49.72557 12.10807 23261 ft 469 kts 174°
2026-04-30 20:08 49.69358 12.11285 22332 ft 463 kts 174°
2026-04-30 20:08 49.66201 12.11757 21385 ft 458 kts 174°
2026-04-30 20:08 49.63092 12.12222 20461 ft 452 kts 174°
2026-04-30 20:08 49.60131 12.12664 19986 ft 439 kts 174°
2026-04-30 20:09 49.57089 12.13118 19970 ft 436 kts 174°
2026-04-30 20:09 49.54033 12.13574 19967 ft 446 kts 174°
2026-04-30 20:09 49.47895 12.14488 19961 ft 447 kts 174°
2026-04-30 20:10 49.42108 12.15348 19476 ft 438 kts 174°
2026-04-30 20:10 49.39116 12.15792 18338 ft 438 kts 174°
2026-04-30 20:10 49.36161 12.16230 17690 ft 428 kts 174°
2026-04-30 20:11 49.30358 12.17088 16967 ft 416 kts 174°
2026-04-30 20:11 49.27439 12.17519 16972 ft 427 kts 174°
2026-04-30 20:11 49.24467 12.17958 16962 ft 429 kts 174°
2026-04-30 20:12 49.18696 12.18808 16960 ft 428 kts 174°
2026-04-30 20:12 49.15847 12.19227 16365 ft 419 kts 174°
2026-04-30 20:12 49.12970 12.19649 15987 ft 415 kts 174°
2026-04-30 20:13 49.10159 12.20061 15978 ft 420 kts 174°
2026-04-30 20:13 49.07362 12.20471 15964 ft 423 kts 174°
2026-04-30 20:13 49.04481 12.20893 15613 ft 414 kts 174°
2026-04-30 20:13 49.01715 12.21297 14906 ft 407 kts 174°
2026-04-30 20:14 48.98890 12.21710 14679 ft 408 kts 174°
2026-04-30 20:14 48.96056 12.22123 14437 ft 415 kts 174°
2026-04-30 20:14 48.93173 12.22543 14185 ft 414 kts 174°
2026-04-30 20:14 48.90308 12.22960 13934 ft 412 kts 174°
2026-04-30 20:15 48.87522 12.23365 13689 ft 410 kts 174°
2026-04-30 20:15 48.84676 12.23778 13437 ft 408 kts 174°
2026-04-30 20:15 48.81849 12.24188 13187 ft 407 kts 174°
2026-04-30 20:15 48.79067 12.24591 12939 ft 406 kts 174°
2026-04-30 20:16 48.76236 12.25001 12686 ft 404 kts 174°
2026-04-30 20:16 48.73571 12.25386 12447 ft 403 kts 174°
2026-04-30 20:16 48.70876 12.25775 12204 ft 402 kts 174°
2026-04-30 20:16 48.68125 12.25935 11949 ft 401 kts 184°
2026-04-30 20:17 48.65465 12.25129 11745 ft 382 kts 200°
2026-04-30 20:17 48.63195 12.23363 11443 ft 366 kts 215°
2026-04-30 20:17 48.61354 12.20771 10853 ft 360 kts 231°
2026-04-30 20:17 48.60028 12.17652 10271 ft 355 kts 244°
2026-04-30 20:18 48.59246 12.14137 9568 ft 353 kts 260°
2026-04-30 20:18 48.59002 12.10486 8990 ft 348 kts 266°
2026-04-30 20:18 48.58881 12.06909 8314 ft 346 kts 267°
2026-04-30 20:18 48.58754 12.03422 8159 ft 328 kts 266°
2026-04-30 20:19 48.58628 12.00116 8059 ft 311 kts 266°
2026-04-30 20:19 48.58553 11.98124 7924 ft 304 kts 266°
2026-04-30 20:19 48.58398 11.94070 7427 ft 299 kts 266°
2026-04-30 20:19 48.58280 11.91034 7006 ft 296 kts 266°
2026-04-30 20:20 48.58164 11.88044 6584 ft 294 kts 266°
2026-04-30 20:20 48.58046 11.85040 6152 ft 292 kts 266°
2026-04-30 20:20 48.57921 11.81971 5708 ft 291 kts 266°
2026-04-30 20:20 48.57799 11.78972 5276 ft 289 kts 266°
2026-04-30 20:21 48.57683 11.76144 4990 ft 283 kts 266°
2026-04-30 20:21 48.57568 11.73315 4969 ft 285 kts 266°
2026-04-30 20:21 48.57451 11.70455 4966 ft 284 kts 266°
2026-04-30 20:21 48.57331 11.67552 4960 ft 278 kts 266°
2026-04-30 20:22 48.57169 11.64739 4964 ft 277 kts 261°
2026-04-30 20:22 48.56844 11.62161 4963 ft 278 kts 254°
2026-04-30 20:22 48.55978 11.59712 4870 ft 268 kts 225°
2026-04-30 20:22 48.54534 11.58421 4792 ft 254 kts 195°
2026-04-30 20:23 48.52843 11.57853 4649 ft 245 kts 194°
2026-04-30 20:23 48.51230 11.57171 4338 ft 244 kts 197°
2026-04-30 20:23 48.49684 11.56490 4065 ft 242 kts 197°
2026-04-30 20:23 48.48125 11.55804 3766 ft 241 kts 197°
2026-04-30 20:24 48.46574 11.55120 3657 ft 231 kts 197°
2026-04-30 20:24 48.45088 11.54464 3555 ft 221 kts 197°
2026-04-30 20:24 48.43694 11.53849 3467 ft 208 kts 197°
2026-04-30 20:24 48.42349 11.53255 3296 ft 200 kts 197°
2026-04-30 20:25 48.40223 11.52317 3083 ft 191 kts 197°
2026-04-30 20:25 48.38516 11.51565 2646 ft 196 kts 197°
2026-04-30 20:26 48.36015 11.51459 2261 ft 173 kts 153°
2026-04-30 20:26 48.34605 11.54206 2289 ft 176 kts 101°
2026-04-30 20:26 48.34625 11.55960 2292 ft 176 kts 81°
2026-04-30 20:27 48.34933 11.59559 2287 ft 176 kts 83°
2026-04-30 20:27 48.35208 11.63044 2278 ft 164 kts 83°
2026-04-30 20:28 48.35463 11.66295 2288 ft 166 kts 83°
2026-04-30 20:28 48.35721 11.69599 2288 ft 165 kts 83°
2026-04-30 20:29 48.35963 11.72714 2060 ft 154 kts 83°
2026-04-30 20:30 48.36346 11.77484 1513 ft 150 kts 83°
2026-04-30 20:30 48.36550 11.80695 1491 ft 31 kts 103°
2026-04-30 20:31 48.36426 11.81150 1491 ft 0 kts 114°
2026-04-30 20:32 48.36367 11.81247 1491 ft 15 kts 159°
2026-04-30 20:32 48.36224 11.81029 1491 ft 23 kts 262°
2026-04-30 20:33 48.36205 11.80760 1491 ft 28 kts 264°
2026-04-30 20:33 48.36156 11.80125 1491 ft 30 kts 263°
2026-04-30 20:33 48.36132 11.79820 1491 ft 18 kts 264°
2026-04-30 20:34 48.36113 11.79563 1491 ft 16 kts 263°
2026-04-30 20:34 48.36080 11.79108 1491 ft 26 kts 262°
2026-04-30 20:35 48.36053 11.78822 1491 ft 28 kts 260°
2026-04-30 20:35 48.36033 11.78518 1491 ft 29 kts 264°
2026-04-30 20:35 48.35986 11.77891 1491 ft 29 kts 263°
2026-04-30 20:36 48.35957 11.77707 1491 ft 15 kts 223°
2026-04-30 20:36 48.35857 11.77692 1491 ft 16 kts 173°
2026-04-30 20:36 48.35644 11.77730 1491 ft 19 kts 175°
2026-04-30 20:37 48.35499 11.77755 1491 ft 21 kts 174°
2026-04-30 20:37 48.35366 11.77777 1491 ft 10 kts 174°
2026-04-30 20:37 48.35324 11.77748 1491 ft 5 kts 265°
2026-04-30 20:37 48.35322 11.77699 1491 ft 3 kts 262°
2026-04-30 20:38 48.35321 11.77689 1491 ft 0 kts 262°